Hutchinson, KS

9:02 PM CDT on June 26, 2017 (GMT -0500)
Hutchinson Municipal

Weather History for KHUT - May, 2013

Change the Weather History Date:

Friday, May 3, 2013

  Actual Average Record
Temperature  
Mean Temperature 46 °F -  
Max Temperature 60 °F 73 °F 93 °F (2014)
Min Temperature 32 °F 46 °F 28 °F (2005)
Degree Days  
Heating Degree Days 20    
Moisture  
Dew Point 26 °F    
Average Humidity 50    
Maximum Humidity 82    
Minimum Humidity 25    
Precipitation  
Precipitation 0.00 in - - ()
Sea Level Pressure  
Sea Level Pressure 30.19 in    
Wind  
Wind Speed 10 mph (NNW)    
Max Wind Speed 20 mph    
Max Gust Speed 33 mph    
Visibility 10 miles    
Events      
Averages and records for this station are not official NWS values.
T = Trace of Precipitation, MM = Missing Value Source: NWS Daily Summary

Daily Weather History Graph

Daily Weather History Graph

Search for Another Location

Airport or City:

Trip Planner

Search our weather history database for the weather conditions in past years. The results will help you decide how hot, cold, wet, or windy it might be!

Date:

Astronomy

May. 03, 2013 Rise Set
Actual Time 6:32 AM CDT 8:24 PM CDT
Civil Twilight 6:04 AM CDT 8:53 PM CDT
Nautical Twilight 5:29 AM CDT 9:27 PM CDT
Astronomical Twilight 4:52 AM CDT 10:05 PM CDT
Moon 2:51 AM CDT (5/3) 2:26 PM CDT (5/3)
Length of Visible Light 14h 49m
Length of Day
13h 52m
Last Quarter, 37% of the Moon is Illuminated
May 3
Last Quarter
May 9
New
May 17
First Quarter
May 24
Full
May 31
Last Quarter

Hourly Weather History & Observations

Time (CDT) Temp. Windchill Dew Point Humidity Pressure Visibility Wind Dir Wind Speed Gust Speed Precip Events Conditions
12:52 AM 39.0 °F 32.8 °F 28.9 °F 67% 30.40 in 10.0 mi NNW 9.2 mph - N/A   Clear
1:52 AM 37.9 °F 32.7 °F 28.9 °F 70% 30.37 in 10.0 mi NNW 6.9 mph - N/A   Clear
2:52 AM 36.0 °F 31.1 °F 28.9 °F 76% 30.34 in 10.0 mi WNW 5.8 mph - N/A   Clear
3:52 AM 34.0 °F 27.2 °F 28.9 °F 82% 30.33 in 10.0 mi NW 8.1 mph - N/A   Clear
4:52 AM 34.0 °F 27.2 °F 28.0 °F 79% 30.32 in 10.0 mi WNW 8.1 mph - N/A   Clear
5:52 AM 32.0 °F 26.4 °F 27.0 °F 82% 30.31 in 10.0 mi NW 5.8 mph - N/A   Clear
6:52 AM 32.0 °F 25.6 °F 27.0 °F 82% 30.32 in 10.0 mi WNW 6.9 mph - N/A   Clear
7:52 AM 39.0 °F 32.3 °F 28.0 °F 65% 30.31 in 10.0 mi NNW 10.4 mph - N/A   Clear
8:52 AM 43.0 °F 37.7 °F 28.0 °F 56% 30.29 in 10.0 mi North 9.2 mph - N/A   Clear
9:52 AM 46.9 °F - 27.0 °F 46% 30.27 in 10.0 mi NNW 15.0 mph - N/A   Clear
10:52 AM 50.0 °F - 26.1 °F 39% 30.25 in 10.0 mi NNW 12.7 mph 19.6 mph N/A   Clear
11:52 AM 53.1 °F - 25.0 °F 34% 30.22 in 10.0 mi North 17.3 mph 23.0 mph N/A   Clear
12:52 PM 55.0 °F - 26.1 °F 33% 30.18 in 10.0 mi NNW 15.0 mph 27.6 mph N/A   Clear
1:52 PM 57.9 °F - 28.0 °F 32% 30.14 in 10.0 mi NW 19.6 mph 25.3 mph N/A   Partly Cloudy
2:52 PM 55.9 °F - 24.1 °F 29% 30.12 in 10.0 mi NNE 18.4 mph 27.6 mph N/A   Mostly Cloudy
3:52 PM 57.0 °F - 24.1 °F 28% 30.09 in 10.0 mi North 16.1 mph 27.6 mph N/A   Mostly Cloudy
4:52 PM 59.0 °F - 23.0 °F 25% 30.06 in 10.0 mi North 17.3 mph 26.5 mph N/A   Scattered Clouds
5:52 PM 57.9 °F - 23.0 °F 26% 30.05 in 10.0 mi North 17.3 mph 33.4 mph N/A   Scattered Clouds
6:52 PM 57.0 °F - 24.1 °F 28% 30.04 in 10.0 mi North 16.1 mph 27.6 mph N/A   Partly Cloudy
7:52 PM 54.0 °F - 25.0 °F 33% 30.03 in 10.0 mi North 12.7 mph 21.9 mph N/A   Clear
8:52 PM 50.0 °F - 25.0 °F 38% 30.03 in 10.0 mi North 9.2 mph - N/A   Clear
9:52 PM 45.0 °F 41.2 °F 27.0 °F 49% 30.04 in 10.0 mi North 6.9 mph - N/A   Clear
10:52 PM 43.0 °F 37.7 °F 25.0 °F 49% 30.03 in 10.0 mi North 9.2 mph - N/A   Clear
11:52 PM 41.0 °F 35.2 °F 25.0 °F 53% 30.02 in 10.0 mi North 9.2 mph - N/A   Clear